Location: Carr Mill
(33.2054°N, 85.9439°W)
Time: 23:57:38
(UTC+00:00)

STARLINK-2732 - Pass Details

Date: 26 October 2021
Orbit: 545 x 549 km, 53.1° (Epoch: 07 December)

Event Time Altitude Azimuth Distance (km) Brightness Sun altitude
Exits shadow 11:05:01 - 234° (SW) 1,946 6.0 -11.6°
Reaches altitude 10° 11:05:22 10° 235° (SW) 1,808 5.8 -11.5°
Maximum altitude 11:09:26 62° 316° (NW) 619 3.6 -10.6°
Drops below altitude 10° 11:13:31 10° 37° (NE) 1,818 6.7 -9.8°
Sets 11:15:47 0° 41° (NE) 2,715 7.6 -9.3°
